Regional Weather Roundup
Issued by NWS Charleston, SC

Current Version | Previous Version | Text Only | Print | Product List | Glossary Off
Versions: 1 2 3 4 5 6 7 8 9 10 11 12 13 14 15 16 17 18 19 20 21 22 23 24 25 26 27 28 29 30 31 32 33 34 35 36 37 38 39 40 41 42 43 44 45 46 47 48 49 50
000 ASUS42 KCHS 290025 RWRCHS REGIONAL WEATHER ROUNDUP NATIONAL WEATHER SERVICE CHARLESTON SC 800 PM EDT MON JUL 28 2014 NOTE: "FAIR" INDICATES FEW OR NO CLOUDS BELOW 12,000 FEET WITH NO SIGNIFICANT WEATHER AND/OR OBSTRUCTIONS TO VISIBILITY. NOT ALL STATIONS ARE QUALITY CONTROLLED BY THE NATIONAL WEATHER SERVICE. USE DATA WITH CAUTION...ESPECIALLY DEWPOINT OBSERVATIONS. SCZ027-030-031-034>040-042>050-290100- ...SOUTH CAROLINA... CITY SKY/WX TMP DP RH WIND PRES REMARKS N CHARLESTON MOCLDY 88 76 67 SW9 29.80R HX 99 6HR MIN TEMP: 88; 6HR MAX TEMP: 96; 6HR PCP: TRACE; WATERFRONT PRK N/A 90 N/A N/A SW7 N/A FORT JOHNSON NOT AVBL MOUNT PLEASANT FAIR 88 79 74 CALM 29.80S HX 102 JOHNS ISLAND CLEAR 88 70 55 CALM 29.81S HX 92 PINOPOLIS N/A 90 75 62 W9 29.73R HX 100 MONCKS CORNER N/A 88 77 70 SW9 29.80S HX 100 SUMMERVILLE MOCLDY 77 73 88 S5 29.82R THUNDER BEAUFORT MCAS MOCLDY 85 79 82 W3 29.82R HX 98 6HR MIN TEMP: 76; 6HR MAX TEMP: 96; 6HR PCP: 0.38; BEAUFORT ARPT FAIR 84 77 79 W6 29.82S HX 94 HILTON HEAD IS MOCLDY 82 73 74 SW3 29.84R GEORGETOWN NOT AVBL WALTERBORO N/A 82 68 61 SW6 29.83R ORANGEBURG CLEAR 89 71 55 W6 29.81R HX 95 6HR MIN TEMP: 89; 6HR MAX TEMP: 95; BARNWELL FAIR 90 72 55 W5 29.83R HX 96 AIKEN FAIR 88 61 40 W8 29.87R MANNING FAIR 86 72 62 CALM 29.79R HX 92 KINGSTREE NOT AVBL COLUMBIA PTCLDY 93 56 28 NW12 29.80R HX 91 6HR MIN TEMP: 93; 6HR MAX TEMP: 101; SUMTER CLEAR 90 62 39 W6 29.79R HX 90 6HR MIN TEMP: 90; 6HR MAX TEMP: 96; FLORENCE PTCLDY N/A N/A N/A NE6 29.80 MYRTLE BEACH TSTM 73 66 78 W12 29.79R N MYRTLE BEACH CLOUDY 77 72 84 MISG 29.79F 6HR MIN TEMP: 73; 6HR MAX TEMP: 92; 6HR PCP: 0.38; $$ GAZ063-065-086>088-099>101-113>116-118-119-134-136>141-150-290100- ...GEORGIA... CITY SKY/WX TMP DP RH WIND PRES REMARKS SAVANNAH ARPT MOCLDY 90 72 55 W18 29.84R HX 97 6HR MIN TEMP: 87; 6HR MAX TEMP: 98; HUNTER AAF MOCLDY 89 75 63 W6 29.82R HX 98 6HR MIN TEMP: 89; 6HR MAX TEMP: 98; FORT STEWART TSTM 79 73 83 VRB1 29.84S 6HR MIN TEMP: 79; 6HR MAX TEMP: 99; 6HR PCP: 0.27; STATESBORO NOT AVBL SYLVANIA MOCLDY 82 74 76 CALM 29.86R CLAXTON FAIR 81 79 94 CALM 29.85R THOMSON PTCLDY 86 69 56 NW6 29.91R HX 90 AUGUSTA-BUSH CLEAR 90 62 39 NW13 29.81R HX 90 6HR MIN TEMP: 90; 6HR MAX TEMP: 95; AUGUSTA-DANIEL CLEAR 92 60 34 NW10 29.84R HX 91 SWAINSBORO FAIR 86 73 66 N3 29.87R THUNDER HX 93 VIDALIA N/A 86 77 74 SW10 29.87R HX 97 ALMA NOT AVBL WAYCROSS CLOUDY 92 67 43 NW8 29.87R HX 95 JESUP FAIR 91 73 55 W5 29.86R HX 100 BRUNSWICK PTCLDY 91 70 49 W9 29.86R HX 97 SAINT SIMONS PTCLDY 91 72 53 W6 29.86R HX 98 6HR MIN TEMP: 91; 6HR MAX TEMP: 97; $$ SCZ027-028-034-036>038-045-046-048>050-GAZ119-141-290100- ...LAKE AND SUPPLEMENTAL COASTAL OBSERVATIONS... STATION/POSITION TIME TEMP WIND PRES WAVE SWELL AIR SEA DIR/SP/G HT/PER HT/PER/DIR (UTC) (F) (DEG/KT/KT) (MB) (FT/S) (FT/S/D) UPR LAKE MARION NOT AVBL WINYAH BAY 0000 87 210/ 8 1008.0S LAKE MURRAY 2300 91 290/ 7/ 12 1008.5R ACE BASIN NERRS 0000 85 CALM 1010.0S FORT PULASKI 0000 87 CALM / 1 1010.4F SAPELO ISLAND 0000 91 240/ 7 1012.0R $$ ANZ835-935-AMZ111-154-330-350-352-354-374-450-454-472-290100- ...C-MAN AND BUOY OBSERVATIONS... STATION/POSITION TIME TEMP WIND PRES WAVE SWELL AIR SEA DIR/SP/G HT/PER HT/PER/DIR (UTC) (F) (DEG/KT/KT) (MB) (FT/S) (FT/S/D) FOLLY BEACH CMAN 0000 87 220/ 14/ 15 1009.8R BUOY 41004 0000 85 84 210/ 19/ 23 1008.2R 5/ 6 2/ 9 BUOY 41008 0000 87 85 210/ 12/ 14 1010.4R 2/ 3 2/100/ 9 5E ST. MARYS GA 0000 85 N/A 2/ 9 FRYING PAN BUOY NOT AVBL BUOY 41025 0000 VRB 12/ 16 1008.7R 4/ 8 3/150/ 8 CAPE LOOKOUT NC 0000 72 300/ 3/ 4 1009.4F BUOY 41002 NOT AVBL BUOY 41010 0000 84 84 200/ 14/ 17 1014.5F 3/ 6 2/140/ 8 BUOY 41012 NOT AVBL ST AUGUSTINE FL 0000 82 220/ 6/ 7 1013.8R CAPERS NEARSHORE 2300 86 360/ 16/ 19 N/A FRIPP NEARSHORE NOT AVBL $$

USA.gov is the U.S. government's official web portal to all federal, state and local government web resources and services.